This demonstration page uses our WeatherBlox Daily Observations layout. Learn more.

Left ArrowRight Arrow

Hourly Observations for February 11, 2015

Temp ( °F °C ) Dew Point ( °F °C ) Humidity (%) Winds ( mph kmh ) Pressure ( in mb ) Visibility ( mi km ) Precip ( " mm )
12:53 am 00:53 Clear 54 12.2 35 1.7 49 49 ESE 7 11 29.78 1009 10 16 0.00 0.00
1:53 am 01:53 Clear 52 11.1 36 2.2 55 55 ESE 7 11 29.78 1009 10 16 0.00 0.00
2:53 am 02:53 Clear 52 11.1 37 2.8 57 57 SE 9 15 29.76 1008 10 16 0.00 0.00
3:53 am 03:53 Clear 45 7.2 35 1.7 68 68 N 6 9 29.79 1009 10 16 0.00 0.00
4:53 am 04:53 Clear 43 6.1 34 1.1 71 71 ENE 6 9 29.79 1009 10 16 0.00 0.00
5:53 am 05:53 Clear 43 6.1 34 1.1 71 71 E 5 7 29.80 1009 10 16 0.00 0.00
6:53 am 06:53 Clear 41 5 34 1.1 76 76 Calm 29.83 1010 10 16 0.00 0.00
7:53 am 07:53 Sunny 44 6.7 35 1.7 71 71 N 8 13 29.90 1012 10 16 0.00 0.00
8:53 am 08:53 Sunny 49 9.4 36 2.2 61 61 N 20 31 29.93 1014 10 16 0.00 0.00
9:53 am 09:53 Sunny 53 11.7 37 2.8 55 55 NE 17 28 29.96 1015 10 16 0.00 0.00
10:53 am 10:53 Sunny 56 13.3 38 3.3 51 51 NNE 18 30 30.01 1016 10 16 0.00 0.00
11:53 am 11:53 Sunny 60 15.6 39 3.9 46 46 NNE 16 26 30.03 1017 10 16 0.00 0.00
12:53 pm 12:53 Mostly Sunny 63 17.2 39 3.9 41 41 NNE 22 35 30.03 1017 10 16 0.00 0.00
1:53 pm 13:53 Mostly Cloudy 63 17.2 39 3.9 41 41 NNE 17 28 30.03 1017 10 16 0.00 0.00
2:53 pm 14:53 Cloudy 60 15.6 38 3.3 44 44 NNE 25 41 30.06 1018 9 14 0.00 0.00
3:53 pm 15:53 Cloudy 56 13.3 36 2.2 47 47 NNE 30 48 30.13 1020 9 14 0.00 0.00
4:53 pm 16:53 Cloudy 50 10 36 2.2 59 59 NNE 28 44 30.19 1022 7 11 0.00 0.00
5:09 pm 17:09 Cloudy 48 8.9 36 2.2 63 63 NNE 29 46 30.24 1024 7 11 0.00 0.00
5:19 pm 17:19 Cloudy 48 8.9 36 2.2 63 63 NNE 24 39 30.24 1024 8 13 0.00 0.00
5:53 pm 17:53 Cloudy 47 8.3 35 1.7 63 63 NNE 28 44 30.22 1024 10 16 0.00 0.00
6:53 pm 18:53 Mostly Cloudy 47 8.3 35 1.7 63 63 NNE 21 33 30.27 1025 10 16 0.00 0.00
7:53 pm 19:53 Cloudy 48 8.9 34 1.1 58 58 NNE 20 31 30.30 1026 10 16 0.00 0.00
8:53 pm 20:53 Cloudy 48 8.9 32 0 54 54 NNE 20 31 30.31 1026 10 16 0.00 0.00
9:53 pm 21:53 Cloudy 46 7.8 31 -0.6 56 56 NNE 21 33 30.33 1027 10 16 0.00 0.00
10:53 pm 22:53 Cloudy 47 8.3 30 -1.1 52 52 NNE 14 22 30.33 1027 10 16 0.00 0.00
11:53 pm 23:53 Cloudy 47 8.3 28 -2.2 48 48 NNE 15 24 30.35 1028 10 16 0.00 0.00

Powered by AerisWeather